Terminal Aerodrome Forecast
Issued by NWS Grand Forks, ND

Home | Current Version | Previous Version | Graphics & Text | Print | Product List | Glossary On
Versions: 1 2 3 4 5 6 7 8 9 10 11 12 13 14
000
FTUS43 KFGF 191700
TAFFAR
TAF
KFAR 191728Z 1918/2018 VRB06KT P6SM SCT250
     FM200500 15010KT P6SM SCT250
     FM201400 19012KT P6SM SCT250=

USA.gov is the U.S. government's official web portal to all federal, state and local government web resources and services.